Regional Weather Roundup
Issued by NWS Huntsville, AL

Home | Current Version | Previous Version | Text Only | Print | Product List | Glossary On
Versions: 1 2 3 4 5 6 7 8 9 10 11 12 13 14 15 16 17 18 19 20 21 22 23 24 25 26 27 28 29 30 31 32 33 34 35 36 37 38 39 40 41 42 43 44 45 46 47 48 49
878
ASUS44 KHUN 110210
RWRHUN

WEATHER ROUNDUP FOR THE TENNESSEE VALLEY
NATIONAL WEATHER SERVICE HUNTSVILLE AL
800 PM CST WED FEB 10 2016

ALZ001>004-110300-
NORTHWEST ALABAMA

CITY           SKY/WX    TMP DP  RH WIND       PRES   REMARKS
SHOALS AIRPORT CLEAR     31  13  47 NE3       30.19R
SHOALS TVA RES   N/A     28 N/A N/A MISG        N/A
$$

ALZ005>007-016-110300-
NORTH CENTRAL ALABAMA

CITY           SKY/WX    TMP DP  RH WIND       PRES   REMARKS
DECATUR AP     PTCLDY    29  15  56 NE5       30.20R WCI  24
HUNTSVILLE AP  PTCLDY    30  12  47 NE3       30.19R
HUN NWS/UAH      N/A     30  13  49 NE5         N/A  WCI  25
MERIDIANVILLE  MOCLDY    30  16  55 CALM      30.19R
REDSTONE ARSN  CLOUDY    29  17  60 NE5       30.18S WCI  24
VINEMONT AP    FAIR      26  15  64 CALM      30.18S
$$

ALZ008>010-110300-
NORTHEAST ALABAMA

CITY           SKY/WX    TMP DP  RH WIND       PRES   REMARKS
ALBERTVILLE    CLOUDY    30  19  64 N5        30.15R WCI  25
FORT PAYNE     CLOUDY    30  10  43 CALM      30.18R
SCOTTSBORO AP  CLOUDY    32  14  47 CALM      30.20S
SCOTTSBORO HCN   N/A     30 N/A N/A MISG        N/A
VALLEY HEAD      N/A     30 N/A N/A MISG        N/A
$$

TNZ076-096-097-110300-
SOUTHEASTERN MIDDLE TENNESSEE

CITY           SKY/WX    TMP DP  RH WIND       PRES   REMARKS
TULLAHOMA      CLOUDY    25  23  93 CALM      30.17S
WINCHESTER     CLOUDY    27  19  74 N6        30.18S WCI  20
$$

...SURROUNDING SITES...

CITY           SKY/WX    TMP DP  RH WIND       PRES   REMARKS
ATLANTA        MOCLDY    34   9  35 NW7       30.13R WCI  28
ANNISTON       CLEAR     31  16  54 CALM      30.18R
BIRMINGHAM     CLEAR     37  11  34 CALM      30.19S
CHATTANOOGA    FLURRIES  30  17  58 SW8       30.19R WCI  22
DALTON         NOT AVBL
GADSDEN        CLEAR     31  14  49 NW7       30.19R WCI  24
GOLDEN TRNGL   CLEAR     37  19  48 CALM      30.16S
HALEYVILLE     FAIR      27  17  66 CALM      30.17R
JACKSON TN     CLOUDY    28  11  48 E6        30.15F WCI  22
MEMPHIS        CLEAR     38  18  44 SE7       30.11F WCI  33
NASHVILLE      FLURRIES  26  20  77 NW3       30.22R
OXFORD MS      FAIR      32  18  55 SE3       30.14F
ROME             N/A    N/A N/A N/A MISG      30.17R
SAVANNAH       CLOUDY    30   9  40 NE6       30.17S WCI  24
TUPELO         CLEAR     35  14  42 CALM      30.16S
TUSCALOOSA     CLEAR     33  21  61 CALM      30.18R
$$

...GULF COAST WEATHER...

CITY           SKY/WX    TMP DP  RH WIND       PRES   REMARKS
GULFPORT       CLEAR     48  32  53 CALM      30.25R
PASCAGOULA     CLEAR     46  35  65 SW5       30.25S
MOBILE         CLEAR     45  33  63 SW8       30.24S
GULF SHORES    CLEAR     39  33  79 CALM      30.25S
PENSACOLA      CLEAR     41  31  67 W3        30.24F
DESTIN         CLEAR     51  29  42 W8        30.24F
PANAMA CITY    CLEAR     41  30  63 CALM      30.26S
APPALACHICOLA  CLEAR     37  29  72 CALM      30.27S
$$





USA.gov is the U.S. government's official web portal to all federal, state and local government web resources and services.